Location: ????????
(55.3975°N, 38.2844°E)
Time: 05:56:16
(UTC+00:00)

BlueWalker 3 - Pass Details

Date: 13 August 2024
Orbit: 476 x 487 km, 53.2° (Epoch: 08 September)

Event Time Altitude Azimuth Distance (km) Brightness Sun altitude
Exits shadow 22:46:51 29° 136° (SE) 939 3.0 -18.5°
Drops below altitude 10° 22:49:42 10° 90° (E) 1,691 4.8 -18.4°
Sets 22:52:03 0° 80° (E) 2,576 6.0 -18.3°
